Location: Home
(42.5358°N, 72.7383°W)
Time: 11:35:55
(UTC-05:00)

A-11 Canister half - Pass Details

Date: 03 December 2021
Orbit: 1524 x 1684 km, 47.3° (Epoch: 19 January)

Event Time Altitude Azimuth Distance (km) Brightness Sun altitude
Rises 02:21:50 0° 247° (WSW) 4,929 - -50.9°
Reaches altitude 10° 02:25:00 10° 248° (WSW) 3,944 - -50.3°
Maximum altitude 02:35:13 86° 338° (NNW) 1,682 - -48.5°
Exits shadow 02:38:57 46° 63° (ENE) 2,130 9.8 -47.8°
Drops below altitude 10° 02:45:17 10° 68° (ENE) 3,888 11.6 -46.7°
Sets 02:48:23 0° 69° (ENE) 4,856 12.3 -46.2°
